User: anonymous   Login
Location: Unspecified
(0.0000°N, 0.0000°E)
Time: 22:19:40
(UTC+00:00)
Language:

TEMPEST-D - Orbit

View from above orbital plane
View from above orbital plane
View from above satellite
View from above satellite

Ground track
Ground track

The orbit data is extracted from the following two-line orbital elements,

1 43547U 98067NV  19047.15478939  .00004260  00000-0  65717-4 0  9992
2 43547  51.6377 240.1886 0006066  32.4805 327.6559 15.56527370 33489
Epoch (UTC): 16 February 2019 03:42:53
Eccentricity: 0.0006066
inclination: 51.6377°
perigee height: 393 km
apogee height: 402 km
right ascension of ascending node: 240.1886°
argument of perigee: 32.4805°
revolutions per day: 15.56527370
mean anomaly at epoch: 327.6559°
orbit number at epoch: 3348

The dashed part of the orbit path shows where the satellite is in the earth's shadow,  

DLR